H1 CPF 2 NER 2025 10 24 9 297 01 glonass138 H2 1805301 9138 43508 2025 10 24 0 0 0 2025 10 27 23 45 0 900 1 1 0 0 0 1 H9 10 0 60972 0.00000 0 18255115.176 11686359.350 -13468307.127 10 0 60972 900.00000 0 19390916.155 12670136.865 -10713056.281 10 0 60972 1800.00000 0 20341244.007 13325236.143 -7750001.906 10 0 60972 2700.00000 0 21049780.214 13669870.251 -4636639.903 10 0 60972 3600.00000 0 21467016.758 13733898.021 -1433362.441 10 0 60972 4500.00000 0 21552434.042 13557331.563 1797710.279 10 0 60972 5400.00000 0 21276319.697 13188428.562 4993930.752 10 0 60972 6300.00000 0 20621151.840 12681450.389 8093334.331 10 0 60972 7200.00000 0 19582488.528 12094180.893 11035835.495 10 0 60972 8100.00000 0 18169325.713 11485310.585 13764387.353 10 0 60972 9000.00000 0 16403908.079 10911796.415 16226082.259 10 0 60972 9900.00000 0 14320999.883 10426308.211 18373172.629 10 0 60972 10800.00000 0 11966645.238 10074869.115 20163992.686 10 0 60972 11700.00000 0 9396468.369 9894789.168 21563763.806 10 0 60972 12600.00000 0 6673583.350 9912978.956 22545268.312 10 0 60972 13500.00000 0 3866198.901 10144714.392 23089379.020 10 0 60972 14400.00000 0 1045016.373 10592905.008 23185434.452 10 0 60972 15300.00000 0 -1719472.286 11247897.253 22831452.350 10 0 60972 16200.00000 0 -4359675.613 12087822.029 22034176.989 10 0 60972 17100.00000 0 -6813472.012 13079473.129 20808958.728 10 0 60972 18000.00000 0 -9026551.416 14179680.960 19179467.242 10 0 60972 18900.00000 0 -10954432.366 15337125.086 17177242.972 10 0 60972 19800.00000 0 -12564070.847 16494510.517 14841094.378 10 0 60972 20700.00000 0 -13834993.860 17591016.913 12216351.685 10 0 60972 21600.00000 0 -14759910.462 18564917.993 9353990.786 10 0 60972 22500.00000 0 -15344774.783 19356260.671 6309643.784 10 0 60972 23400.00000 0 -15608298.574 19909490.389 3142515.259 10 0 60972 24300.00000 0 -15580934.204 20175910.945 -85774.407 10 0 60972 25200.00000 0 -15303371.607 20115873.745 -3312395.563 10 0 60972 26100.00000 0 -14824613.492 19700602.652 -6474541.224 10 0 60972 27000.00000 0 -14199711.244 18913576.023 -9510659.330 10 0 60972 27900.00000 0 -13487258.488 17751406.337 -12361660.178 10 0 60972 28800.00000 0 -12746749.601 16224179.283 -14972074.382 10 0 60972 29700.00000 0 -12035916.130 14355237.252 -17291137.971 10 0 60972 30600.00000 0 -11408154.708 12180415.842 -19273782.897 10 0 60972 31500.00000 0 -10910155.950 9746765.155 -20881513.464 10 0 60972 32400.00000 0 -10579834.806 7110809.415 -22083151.718 10 0 60972 33300.00000 0 -10444649.789 4336417.645 -22855437.800 10 0 60972 34200.00000 0 -10520381.639 1492374.312 -23183474.215 10 0 60972 35100.00000 0 -10810422.395 -1350248.939 -23061006.255 10 0 60972 36000.00000 0 -11305604.109 -4120811.434 -22490533.988 10 0 60972 36900.00000 0 -11984573.733 -6751798.980 -21483254.448 10 0 60972 37800.00000 0 -12814697.714 -9181385.577 -20058835.854 10 0 60972 38700.00000 0 -13753457.706 -11355755.986 -18245028.721 10 0 60972 39600.00000 0 -14750278.366 -13231093.905 -16077121.767 10 0 60972 40500.00000 0 -15748710.085 -14775154.580 -13597253.295 10 0 60972 41400.00000 0 -16688874.883 -15968357.994 -10853591.404 10 0 60972 42300.00000 0 -17510072.566 -16804358.714 -7899398.869 10 0 60972 43200.00000 0 -18153437.694 -17290070.275 -4792000.678 10 0 60972 44100.00000 0 -18564535.704 -17445144.615 -1591674.066 10 0 60972 45000.00000 0 -18695789.065 -17300929.764 1639517.517 10 0 60972 45900.00000 0 -18508631.461 -16898950.676 4838924.090 10 0 60972 46800.00000 0 -17975299.337 -16288977.878 7944519.360 10 0 60972 47700.00000 0 -17080185.262 -15526765.753 10896098.211 10 0 60972 48600.00000 0 -15820695.864 -14671555.870 13636438.495 10 0 60972 49500.00000 0 -14207577.687 -13783450.478 16112405.015 10 0 60972 50400.00000 0 -12264696.457 -12920766.493 18275974.673 10 0 60972 51300.00000 0 -10028277.859 -12137480.990 20085163.465 10 0 60972 52200.00000 0 -7545640.218 -11480875.248 21504837.886 10 0 60972 53100.00000 0 -4873470.455 -10989476.072 22507395.463 10 0 60972 54000.00000 0 -2075713.507 -10691380.681 23073301.648 10 0 60972 54900.00000 0 778838.635 -10603035.552 23191472.798 10 0 60972 55800.00000 0 3619159.627 -10728520.742 22859497.782 10 0 60972 56700.00000 0 6374696.117 -11059370.301 22083693.542 10 0 60972 57600.00000 0 8978058.519 -11574937.066 20878992.908 10 0 60972 58500.00000 0 11367584.320 -12243287.443 19268665.960 10 0 60972 59400.00000 0 13489667.979 -13022589.563 17283879.303 10 0 60972 60300.00000 0 15300760.795 -13862937.318 14963100.695 10 0 60972 61200.00000 0 16768957.435 -14708534.191 12351359.570 10 0 60972 62100.00000 0 17875102.869 -15500145.246 9499376.975 10 0 60972 63000.00000 0 18613373.290 -16177713.852 6462581.257 10 0 60972 63900.00000 0 18991306.645 -16683032.242 3300028.496 10 0 60972 64800.00000 0 19029281.667 -16962352.248 73248.887 10 0 60972 65700.00000 0 18759467.705 -16968824.747 -3154957.912 10 0 60972 66600.00000 0 18224290.268 -16664663.263 -6321754.061 10 0 60972 67500.00000 0 17474477.936 -16022938.845 -9365496.411 10 0 60972 68400.00000 0 16566774.209 -15028928.925 -12226945.786 10 0 60972 69300.00000 0 15561412.160 -13680961.966 -14850428.011 10 0 60972 70200.00000 0 14519459.770 -11990721.208 -17184923.173 10 0 60972 71100.00000 0 13500149.086 -9982993.931 -19185061.332 10 0 60972 72000.00000 0 12558302.745 -7694876.251 -20812005.010 10 0 60972 72900.00000 0 11741966.872 -5174466.451 -22034201.409 10 0 60972 73800.00000 0 11090350.171 -2479101.342 -22827990.165 10 0 60972 74700.00000 0 10632155.708 326790.788 -23178055.481 10 0 60972 75600.00000 0 10384374.944 3174131.264 -23077714.694 10 0 60972 76500.00000 0 10351593.872 5991824.843 -22529038.550 10 0 60972 77400.00000 0 10525839.361 8709477.097 -21542801.666 10 0 60972 78300.00000 0 10886971.168 11260083.101 -20138264.848 10 0 60972 79200.00000 0 11403602.094 13582576.618 -18342793.999 10 0 60972 80100.00000 0 12034506.773 15624134.842 -16191323.361 10 0 60972 81000.00000 0 12730459.186 17342144.183 -13725673.648 10 0 60972 81900.00000 0 13436421.134 18705746.627 -10993738.312 10 0 60972 82800.00000 0 14093989.272 19696903.702 -8048553.651 10 0 60972 83700.00000 0 14643997.567 20310935.130 -4947270.673 10 0 60972 84600.00000 0 15029165.524 20556511.084 -1750048.462 10 0 60972 85500.00000 0 15196680.678 20455099.691 1481109.588 10 0 60973 0.00000 0 15100606.541 20039894.101 4683554.002 10 0 60973 900.00000 0 14704014.493 19354264.776 7795200.575 10 0 60973 1800.00000 0 13980749.791 18449803.237 10755727.229 10 0 60973 2700.00000 0 12916756.941 17384039.063 13507739.212 10 0 60973 3600.00000 0 11510908.151 16217926.623 15997876.099 10 0 60973 4500.00000 0 9775299.260 15013206.845 18177841.267 10 0 60973 5400.00000 0 7734999.621 13829754.489 20005334.125 10 0 60973 6300.00000 0 5427265.009 12723021.853 21444867.570 10 0 60973 7200.00000 0 2900244.851 11741685.705 22468455.271 10 0 60973 8100.00000 0 211235.958 10925595.702 23056155.865 10 0 60973 9000.00000 0 -2575446.363 10304110.000 23196463.709 10 0 60973 9900.00000 0 -5390892.979 9894887.742 22886538.526 10 0 60973 10800.00000 0 -8164222.279 9703189.145 22132269.206 10 0 60973 11700.00000 0 -10825290.670 9721712.859 20948169.858 10 0 60973 12600.00000 0 -13307380.666 9930977.958 19357109.305 10 0 60973 13500.00000 0 -15549755.573 10300235.126 17389878.212 10 0 60973 14400.00000 0 -17499974.846 10788869.365 15084601.153 10 0 60973 15300.00000 0 -19115873.706 11348235.709 12486003.990 10 0 60973 16200.00000 0 -20367124.242 11923850.892 9644549.940 10 0 60973 17100.00000 0 -21236312.485 12457848.496 6615460.515 10 0 60973 18000.00000 0 -21719486.005 12891593.513 3457640.200 10 0 60973 18900.00000 0 -21826148.961 13168345.050 232525.957 10 0 60973 19800.00000 0 -21578704.808 13235853.443 -2997115.497 10 0 60973 20700.00000 0 -21011370.492 13048780.567 -6168418.295 10 0 60973 21600.00000 0 -20168608.518 12570839.415 -9219650.878 10 0 60973 22500.00000 0 -19103143.878 11776560.958 -12091427.102 10 0 60973 23400.00000 0 -17873650.595 10652612.176 -14727870.270 10 0 60973 24300.00000 0 -16542206.592 9198608.401 -17077706.523 10 0 60973 25200.00000 0 -15171625.294 7427384.689 -19095265.687 10 0 60973 26100.00000 0 -13822777.275 5364714.064 -20741369.791 10 0 60973 27000.00000 0 -12552015.317 3048483.901 -21984092.073 10 0 60973 27900.00000 0 -11408811.377 527364.602 -22799372.142 10 0 60973 28800.00000 0 -10433704.577 -2140974.024 -23171475.971 10 0 60973 29700.00000 0 -9656645.779 -4892024.440 -23093292.622 10 0 60973 30600.00000 0 -9095807.273 -7656891.346 -22566462.821 10 0 60973 31500.00000 0 -8756906.327 -10364928.259 -21601337.714 10 0 60973 32400.00000 0 -8633069.612 -12946451.622 -20216769.297 10 0 60973 33300.00000 0 -8705242.852 -15335420.290 -18439737.168 10 0 60973 34200.00000 0 -8943127.180 -17471969.839 -16304819.135 10 0 60973 35100.00000 0 -9306601.734 -19304697.315 -13853516.170 10 0 60973 36000.00000 0 -9747571.781 -20792602.470 -11133444.783 10 0 60973 36900.00000 0 -10212163.888 -21906605.788 -8197412.427 10 0 60973 37800.00000 0 -10643175.269 -22630581.261 -5102393.733 10 0 60973 38700.00000 0 -10982673.800 -22961861.960 -1908427.238 10 0 60973 39600.00000 0 -11174638.972 -22911198.448 1322546.094 10 0 60973 40500.00000 0 -11167532.337 -22502172.762 4527880.228 10 0 60973 41400.00000 0 -10916689.000 -21770093.380 7645434.234 10 0 60973 42300.00000 0 -10386429.214 -20760418.116 10614771.989 10 0 60973 43200.00000 0 -9551800.835 -19526771.491 13378328.428 10 0 60973 44100.00000 0 -8399878.838 -18128639.850 15882520.111 10 0 60973 45000.00000 0 -6930566.525 -16628840.796 18078778.959 10 0 60973 45900.00000 0 -5156863.781 -15090872.708 19924489.660 10 0 60973 46800.00000 0 -3104589.818 -13576254.896 21383813.118 10 0 60973 47700.00000 0 -811570.446 -12141969.262 22428380.440 10 0 60973 48600.00000 0 1673677.973 -10838109.914 23037844.418 10 0 60973 49500.00000 0 4293714.916 -9705838.599 23200278.021 10 0 60973 50400.00000 0 6984320.759 -8775731.061 22912412.112 10 0 60973 51300.00000 0 9676933.078 -8066583.308 22179707.475 10 0 60973 52200.00000 0 12301274.459 -7584727.711 21016259.142 10 0 60973 53100.00000 0 14788063.827 -7323887.726 19444534.011 10 0 60973 54000.00000 0 17071699.382 -7265577.598 17494945.839 10 0 60973 54900.00000 0 19092801.989 -7380030.598 15205274.719 10 0 60973 55800.00000 0 20800513.075 -7627617.049 12619941.297 10 0 60973 56700.00000 0 22154450.959 -7960692.580 9789148.948 10 0 60973 57600.00000 0 23126243.390 -8325798.585 6767909.954 10 0 60973 58500.00000 0 23700571.616 -8666121.583 3614974.441 10 0 60973 59400.00000 0 23875681.715 -8924106.805 391683.078 10 0 60973 60300.00000 0 23663341.448 -9044114.395 -2839233.647 10 0 60973 61200.00000 0 23088244.374 -8975004.480 -6014885.232 10 0 60973 62100.00000 0 22186886.631 -8672540.190 -9073455.071 10 0 60973 63000.00000 0 21005964.246 -8101505.381 -11955413.279 10 0 60973 63900.00000 0 19600359.353 -7237445.973 -14604683.636 10 0 60973 64800.00000 0 18030801.133 -6067959.962 -16969741.045 10 0 60973 65700.00000 0 16361300.989 -4593480.498 -19004617.468 10 0 60973 66600.00000 0 14656470.764 -2827518.126 -20669796.460 10 0 60973 67500.00000 0 12978837.433 -796351.298 -21932978.942 10 0 60973 68400.00000 0 11386267.338 1461822.364 -22769705.753 10 0 60973 69300.00000 0 9929607.955 3898238.853 -23163825.481 10 0 60973 70200.00000 0 8650645.546 6455368.351 -23107799.335 10 0 60973 71100.00000 0 7580463.319 9069088.742 -22602838.009 10 0 60973 72000.00000 0 6738267.598 11671141.749 -21658868.724 10 0 60973 72900.00000 0 6130729.671 14191769.900 -20294333.800 10 0 60973 73800.00000 0 5751869.244 16562425.096 -18535825.230 10 0 60973 74700.00000 0 5583482.771 18718436.737 -16417562.693 10 0 60973 75600.00000 0 5596097.153 20601529.151 -13980725.342 10 0 60973 76500.00000 0 5750407.385 22162084.406 -11272650.294 10 0 60973 77400.00000 0 5999136.648 23361057.113 -8345913.376 10 0 60973 78300.00000 0 6289239.662 24171462.346 -5257309.770 10 0 60973 79200.00000 0 6564355.910 24579375.555 -2066754.176 10 0 60973 80100.00000 0 6767408.938 24584403.568 1163878.302 10 0 60973 81000.00000 0 6843241.842 24199607.843 4371948.241 10 0 60973 81900.00000 0 6741177.644 23450883.882 7495261.947 10 0 60973 82800.00000 0 6417396.424 22375823.320 10473272.171 10 0 60973 83700.00000 0 5837028.782 21022106.691 13248246.501 10 0 60973 84600.00000 0 4975877.085 19445494.264 15766381.135 10 0 60973 85500.00000 0 3821691.492 17707498.987 17978838.856 10 0 60974 0.00000 0 2374946.433 15872838.736 19842691.449 10 0 60974 900.00000 0 649082.974 14006772.931 21321749.750 10 0 60974 1800.00000 0 -1329792.513 12172436.686 22387263.334 10 0 60974 2700.00000 0 -3523745.034 10428279.915 23018479.953 10 0 60974 3600.00000 0 -5884348.099 8825720.048 23203051.572 10 0 60974 4500.00000 0 -8354468.175 7407104.820 22937280.114 10 0 60974 5400.00000 0 -10870423.906 6204069.860 22226197.696 10 0 60974 6300.00000 0 -13364431.958 5236359.354 21083479.192 10 0 60974 7200.00000 0 -15767239.085 4511158.951 19531187.992 10 0 60974 8100.00000 0 -18010831.911 4022968.796 17599358.860 10 0 60974 9000.00000 0 -20031112.181 3754022.056 15325424.880 10 0 60974 9900.00000 0 -21770426.092 3675231.464 12753498.588 10 0 60974 10800.00000 0 -23179841.897 3747624.032 9933520.340 10 0 60974 11700.00000 0 -24221080.068 3924203.339 6920289.851 10 0 60974 12600.00000 0 -24868014.443 4152160.382 3772399.497 10 0 60974 13500.00000 0 -25107680.700 4375338.884 551090.272 10 0 60974 14400.00000 0 -24940749.136 4536849.775 -2680946.837 10 0 60974 15300.00000 0 -24381441.446 4581722.925 -5860799.829 10 0 60974 16200.00000 0 -23456894.874 4459482.396 -8926570.015 10 0 60974 17100.00000 0 -22206000.692 4126534.605 -11818586.520 10 0 60974 18000.00000 0 -20677766.403 3548266.815 -14480576.105 10 0 60974 18900.00000 0 -18929271.369 2700765.766 -16860764.617 10 0 60974 19800.00000 0 -17023302.677 1572082.632 -18912887.968 10 0 60974 20700.00000 0 -15025771.486 162989.930 -20597092.601 10 0 60974 21600.00000 0 -13003018.996 -1512802.255 -21880707.993 10 0 60974 22500.00000 0 -11019125.413 -3428980.388 -22738876.563 10 0 60974 23400.00000 0 -9133334.708 -5547498.319 -23155029.352 10 0 60974 24300.00000 0 -7397702.536 -7819948.683 -23121199.070 10 0 60974 25200.00000 0 -5855064.864 -10189377.781 -22638165.292 10 0 60974 26100.00000 0 -4537411.028 -12592468.437 -21715429.841 10 0 60974 27000.00000 0 -3464727.710 -14962000.123 -20371023.561 10 0 60974 27900.00000 0 -2644360.408 -17229484.239 -18631148.785 10 0 60974 28800.00000 0 -2070917.319 -19327865.225 -16529664.813 10 0 60974 29700.00000 0 -1726717.810 -21194175.560 -14107426.584 10 0 60974 30600.00000 0 -1582765.013 -22772034.677 -11411489.371 10 0 60974 31500.00000 0 -1600200.198 -24013888.237 -8494194.906 10 0 60974 32400.00000 0 -1732176.579 -24882895.094 -5412156.490 10 0 60974 33300.00000 0 -1926072.721 -25354383.832 -2225162.618 10 0 60974 34200.00000 0 -2125951.629 -25416818.705 1004979.751 10 0 60974 35100.00000 0 -2275161.375 -25072235.170 4215640.017 10 0 60974 36000.00000 0 -2318967.286 -24336127.312 7344573.863 10 0 60974 36900.00000 0 -2207104.483 -23236792.228 10331124.991 10 0 60974 37800.00000 0 -1896142.932 -21814159.022 13117395.639 10 0 60974 38700.00000 0 -1351565.098 -20118151.389 15649363.548 10 0 60974 39600.00000 0 -549468.300 -18206652.100 17877924.132 10 0 60974 40500.00000 0 522180.444 -16143154.057 19759838.145 10 0 60974 41400.00000 0 1862790.714 -13994195.430 21258567.051 10 0 60974 42300.00000 0 3458928.930 -11826685.234 22344980.340 10 0 60974 43200.00000 0 5284643.218 -9705230.067 22997921.531 10 0 60974 44100.00000 0 7302321.081 -7689572.619 23204622.083 10 0 60974 45000.00000 0 9464045.869 -5832247.936 22960955.191 10 0 60974 45900.00000 0 11713397.397 -4176554.444 22271524.238 10 0 60974 46800.00000 0 13987623.421 -2754923.758 21149583.614 10 0 60974 47700.00000 0 16220093.014 -1587756.948 19616792.618 10 0 60974 48600.00000 0 18342930.791 -682775.626 17702806.187 10 0 60974 49500.00000 0 20289722.916 -34914.836 15444709.306 10 0 60974 50400.00000 0 21998182.235 373237.830 12886305.016 10 0 60974 51300.00000 0 23412661.052 570475.498 10077268.966 10 0 60974 52200.00000 0 24486405.868 595518.579 7072186.277 10 0 60974 53100.00000 0 25183458.825 495136.325 3929489.212 10 0 60974 54000.00000 0 25480125.118 321923.406 710316.425 10 0 60974 54900.00000 0 25365943.825 131826.407 -2522683.517 10 0 60974 55800.00000 0 24844120.496 -18473.847 -5706580.185 10 0 60974 56700.00000 0 23931402.807 -74211.941 -8779395.930 10 0 60974 57600.00000 0 22657404.243 14894.244 -11681321.938 10 0 60974 58500.00000 0 21063404.405 292267.623 -14355890.837 10 0 60974 59400.00000 0 19200676.799 792389.961 -16751082.082 10 0 60974 60300.00000 0 17128414.980 1539103.140 -18820337.921 10 0 60974 61200.00000 0 14911344.839 2544366.394 -20523469.792 10 0 60974 62100.00000 0 12617123.811 3807522.700 -21827437.546 10 0 60974 63000.00000 0 10313636.362 5315105.749 -22706986.712 10 0 60974 63900.00000 0 8066299.080 7041195.991 -23145132.001 10 0 60974 64800.00000 0 5935487.747 8948311.035 -23133478.494 10 0 60974 65700.00000 0 3974193.148 10988793.326 -22672375.148 10 0 60974 66600.00000 0 2226002.428 13106637.175 -21770898.484 10 0 60974 67500.00000 0 723488.755 15239679.026 -20446667.522 10 0 60974 68400.00000 0 -512925.198 17322059.797 -18725494.142 10 0 60974 69300.00000 0 -1475584.381 19286856.829 -16640876.018 10 0 60974 70200.00000 0 -2169675.254 21068776.057 -14233342.195 10 0 60974 71100.00000 0 -2612755.290 22606792.525 -11549663.999 10 0 60974 72000.00000 0 -2833759.527 23846629.455 -8641946.584 10 0 60974 72900.00000 0 -2871527.454 24742972.878 -5566618.552 10 0 60974 73800.00000 0 -2772913.399 25261329.743 -2383339.103 10 0 60974 74700.00000 0 -2590560.930 25379452.257 846156.237 10 0 60974 75600.00000 0 -2380435.740 25088269.259 4059249.085 10 0 60974 76500.00000 0 -2199221.469 24392285.951 7193647.919 10 0 60974 77400.00000 0 -2101688.585 23309435.431 10188590.735 10 0 60974 78300.00000 0 -2138147.438 21870388.256 12986017.613 10 0 60974 79200.00000 0 -2352093.011 20117348.760 15531690.822 10 0 60974 80100.00000 0 -2778140.841 18102388.117 17776241.125 10 0 60974 81000.00000 0 -3440341.320 15885383.225 19676120.529 10 0 60974 81900.00000 0 -4350943.905 13531646.722 21194443.546 10 0 60974 82800.00000 0 -5509663.960 11109346.103 22301701.143 10 0 60974 83700.00000 0 -6903484.197 8686818.537 22976333.942 10 0 60974 84600.00000 0 -8507000.467 6329892.161 23205153.809 10 0 60974 85500.00000 0 -10283299.105 4099324.444 22983605.639 10 0 60975 0.00000 0 -12185330.761 2048463.507 22315864.071 10 0 60975 900.00000 0 -14157726.159 221227.992 21214762.250 10 0 60975 1800.00000 0 -16138977.017 -1349508.241 19701554.213 10 0 60975 2700.00000 0 -18063895.771 -2643063.261 17805513.307 10 0 60975 3600.00000 0 -19866249.819 -3651575.657 15563374.124 10 0 60975 4500.00000 0 -21481461.632 -4380089.625 13018627.455 10 0 60975 5400.00000 0 -22849261.604 -4846092.960 10220681.108 10 0 60975 6300.00000 0 -23916182.086 -5078527.697 7223902.206 10 0 60975 7200.00000 0 -24637787.162 -5116315.443 4086559.319 10 0 60975 8100.00000 0 -24980543.522 -5006460.256 869685.120 10 0 60975 9000.00000 0 -24923252.620 -4801810.066 -2364117.879 10 0 60975 9900.00000 0 -24457982.763 -4558572.438 -5551904.361 10 0 60975 10800.00000 0 -23590460.984 -4333691.139 -8631621.117 10 0 60975 11700.00000 0 -22339907.565 -4182196.028 -11543324.602 10 0 60975 12600.00000 0 -20738319.836 -4154639.957 -14230356.267 10 0 60975 13500.00000 0 -18829235.419 -4294732.565 -16640451.803 10 0 60975 14400.00000 0 -16666027.120 -4637272.300 -18726762.019 10 0 60975 15300.00000 0 -14309801.529 -5206465.019 -20448765.082 10 0 60975 16200.00000 0 -11826989.886 -6014700.898 -21773052.384 10 0 60975 17100.00000 0 -9286732.416 -7061841.661 -22673973.116 10 0 60975 18000.00000 0 -6758165.725 -8335048.396 -23134125.592 10 0 60975 18900.00000 0 -4307726.300 -9809157.308 -23144686.613 10 0 60975 19800.00000 0 -1996582.117 -11447587.671 -22705573.332 10 0 60975 20700.00000 0 121701.510 -13203743.916 -21825435.329 10 0 60975 21600.00000 0 2003165.817 -15022853.181 -20521477.807 10 0 60975 22500.00000 0 3615050.348 -16844161.565 -18819119.912 10 0 60975 23400.00000 0 4936907.978 -18603397.368 -16751495.209 10 0 60975 24300.00000 0 5961198.652 -20235398.623 -14358804.215 10 0 60975 25200.00000 0 6693339.029 -21676795.333 -11687531.600 10 0 60975 26100.00000 0 7151207.833 -22868634.611 -8789543.181 10 0 60975 27000.00000 0 7364129.421 -23758839.226 -5721080.112 10 0 60975 27900.00000 0 7371379.721 -24304397.023 -2541669.592 10 0 60975 28800.00000 0 7220278.583 -24473189.816 687026.910 10 0 60975 29700.00000 0 6963949.755 -24245385.394 3902405.748 10 0 60975 30600.00000 0 6658843.487 -23614334.461 7042130.574 10 0 60975 31500.00000 0 6362126.579 -22586934.915 10045335.902 10 0 60975 32400.00000 0 6129050.111 -21183448.106 12853801.701 10 0 60975 33300.00000 0 6010405.920 -19436774.391 15413076.600 10 0 60975 34200.00000 0 6050179.043 -17391217.786 17673528.310 10 0 60975 35100.00000 0 6283495.132 -15100790.630 19591301.417 10 0 60975 36000.00000 0 6734949.471 -12627128.057 21129164.524 10 0 60975 36900.00000 0 7417388.323 -10037098.268 22257230.799 10 0 60975 37800.00000 0 8331194.583 -7400206.918 22953538.381 10 0 60975 38700.00000 0 9464108.750 -4785902.487 23204479.652 10 0 60975 39600.00000 0 10791594.073 -2260893.547 23005071.031 10 0 60975 40500.00000 0 12277732.097 113411.552 22359057.819 10 0 60975 41400.00000 0 13876612.774 2283237.053 21278851.500 10 0 60975 42300.00000 0 15534162.538 4204447.823 19785299.916 10 0 60975 43200.00000 0 17190335.263 5844149.981 17907293.781 10 0 60975 44100.00000 0 18781575.480 7181817.723 15681216.063 10 0 60975 45000.00000 0 20243451.354 8209899.510 13150243.888 10 0 60975 45900.00000 0 21513347.261 8933878.459 10363515.590 10 0 60975 46800.00000 0 22533102.701 9371784.678 7375178.422 10 0 60975 47700.00000 0 23251485.988 9553180.385 4243335.163 10 0 60975 48600.00000 0 23626397.674 9517661.125 1028910.164 10 0 60975 49500.00000 0 23626709.730 9312937.122 -2205542.629 10 0 60975 50400.00000 0 23233661.748 8992576.807 -5397065.661 10 0 60975 51300.00000 0 22441754.122 8613509.209 -8483532.845 10 0 60975 52200.00000 0 21259099.594 8233392.258 -11404868.543 10 0 60975 53100.00000 0 19707217.632 7907959.816 -14104225.548 10 0 60975 54000.00000 0 17820279.907 7688461.066 -16529098.123 10 0 60975 54900.00000 0 15643838.466 7619301.787 -18632347.777 10 0 60975 55800.00000 0 13233090.122 7735988.171 -20373121.329 10 0 60975 56700.00000 0 10650750.079 8063460.695 -21717643.440 10 0 60975 57600.00000 0 7964624.018 8614888.711 -22639868.491 10 0 60975 58500.00000 0 5244980.271 9390976.645 -23121979.722 10 0 60975 59400.00000 0 2561831.658 10379810.957 -23154726.720 10 0 60975 60300.00000 0 -17760.115 11557254.058 -22737595.614 10 0 60975 61200.00000 0 -2432245.933 12887868.425 -21878809.462 10 0 60975 62100.00000 0 -4627911.080 14326331.916 -20595159.665 10 0 60975 63000.00000 0 -6560862.148 15819284.817 -18911672.212 10 0 60975 63900.00000 0 -8198597.953 17307531.168 -16861115.686 10 0 60975 64800.00000 0 -9521100.825 18728502.181 -14483360.778 10 0 60975 65700.00000 0 -10521404.720 20018878.720 -11824603.784 10 0 60975 66600.00000 0 -11205618.287 21117263.117 -8936469.123 10 0 60975 67500.00000 0 -11592403.796 21966788.595 -5875008.119 10 0 60975 68400.00000 0 -11711935.388 22517557.111 -2699613.333 10 0 60975 69300.00000 0 -11604381.774 22728803.564 528130.671 10 0 60975 70200.00000 0 -11317978.290 22570695.703 3745637.988 10 0 60975 71100.00000 0 -10906770.232 22025694.266 6890530.548 10 0 60975 72000.00000 0 -10428123.048 21089416.170 9901842.537 10 0 60975 72900.00000 0 -9940104.550 19770964.307 12721196.957 10 0 60975 73800.00000 0 -9498849.532 18092709.668 15293931.870 10 0 60975 74700.00000 0 -9156017.769 16089534.230 17570154.884 10 0 60975 75600.00000 0 -8956452.373 13807565.411 19505705.927 10 0 60975 76500.00000 0 -8936137.014 11302453.830 21063010.218 10 0 60975 77400.00000 0 -9120538.055 8637264.989 22211805.357 10 0 60975 78300.00000 0 -9523401.591 5880071.349 22929728.879 10 0 60975 79200.00000 0 -10146056.541 3101343.586 23202755.149 10 0 60975 80100.00000 0 -10977253.906 371248.178 23025473.112 10 0 60975 81000.00000 0 -11993550.108 -2243037.624 22401199.305 10 0 60975 81900.00000 0 -13160219.642 -4679882.943 21341923.366 10 0 60975 82800.00000 0 -14432660.204 -6885527.054 19868086.343 10 0 60975 83700.00000 0 -15758232.677 -8816073.755 18008195.094 10 0 60975 84600.00000 0 -17078459.985 -10439073.696 15798279.195 10 0 60975 85500.00000 0 -18331493.283 -11734628.849 13281199.819 99